[[{"header":{"parameterUnit":"m.s-1","parameterCategory":1,"la1":30.2991,"la2":30.254,"lo1":-89.0895,"lo2":-89.0444,"dy":0.0017,"dx":0.0017,"nx":28,"ny":28,"refTime":"2025-12-22T09:00:00:Z","depth":0,"parameterNumber":2,"parameterNumberName":"U-component_of_WINDS"},"data":[0,0,0,0,0,0,0,0,0,0,0,0,0,0,0,0,0,0,0,0,0,0,0,0,0,0,0,0,0,0,0,0,0,0,0,0,0,0,0,0,0,0,0,0,0,0,0,0,0,0,0,0,0,0,0,0,0,0,-3.9822,-3.9823,0,-3.9864,-3.9864,-3.9865,-3.9813,-3.9811,-3.9809,-3.9807,-3.985,-3.9853,-3.9856,0,0,0,0,0,0,0,0,0,0,0,0,0,-3.9699,-3.9701,-3.9822,-3.9823,-3.9823,-3.9864,-3.9864,-3.9865,-3.9813,-3.9811,-3.9808,-3.9806,-3.9849,-3.9852,-3.9856,0,0,0,0,0,0,0,0,0,0,0,0,0,-3.9747,-3.9702,-3.9822,-3.9802,-3.9801,-3.9864,-3.9864,-3.9865,-3.9814,-3.9811,-3.9808,-3.9805,-3.9848,-3.9852,-3.9856,-3.9941,0,0,-3.987,-3.9872,0,0,0,0,0,0,0,0,-3.9745,-3.9752,-3.9805,-3.9804,-3.9802,-3.983,-3.9836,-3.989,-3.9814,-3.9809,-3.9807,-3.9804,-3.9846,-3.985,-3.9864,-3.9943,-3.9945,-3.987,-3.9873,-3.9875,-3.9876,0,0,0,0,0,0,0,-3.9741,-3.975,-3.9839,-3.9805,-3.9804,-3.9792,-3.9795,-3.9846,-3.9843,-3.9809,-3.9805,-3.9811,-3.9844,-3.986,-3.9865,-3.9945,-3.987,-3.9874,-3.9877,-3.9878,-4.0096,-4.0099,0,0,0,0,0,0,-3.974,-3.9747,-3.9837,-3.984,-3.9766,-3.9796,-3.98,-3.9824,-3.9842,-3.9842,-3.9813,-3.9808,-3.9854,-3.986,-3.9866,-3.9966,-3.9875,-3.9879,-3.9881,-4.0093,-4.0097,-4.0101,0,0,0,0,0,0,-3.9738,-3.9749,-3.9836,-3.9793,-3.9803,-3.9801,-3.9828,-3.9826,-3.9842,-3.9845,-3.9844,-3.983,-3.9852,-3.986,-3.9923,-3.9967,-3.9881,-3.9885,-4.009,-4.0094,-4.0099,-4.0167,0,0,0,0,0,0,-3.9734,-3.9748,-3.978,-3.9794,-3.9805,-3.9891,-3.9831,-3.9829,-3.985,-3.9843,-3.9861,-3.9861,-3.985,-3.9917,-3.9927,-3.9971,-3.9888,-4.0086,-4.0092,-4.0097,-4.0161,-4.0174,-4.0185,0,0,0,0,0,-3.973,-3.9797,-3.9782,-3.9793,-3.9845,-3.9894,-3.99,-3.9887,-3.9853,-3.9885,-3.9888,-3.986,-3.9961,-3.9923,-3.9935,-3.9981,-4.0083,-4.009,-4.0097,-4.0156,-4.0171,-4.0184,0,0,0,0,0,0,-3.9787,-3.9798,-3.9781,-3.9855,-3.9874,-3.9885,-3.9925,-3.9904,-3.9933,-3.9926,-3.9908,-3.9913,-3.998,-3.9987,-3.9945,-4.0065,-4.0016,-4.0026,-4.0057,-4.0072,-4.0083,-4.008,-3.9892,0,0,0,0,0,-3.9809,-3.9848,-3.9855,-3.9919,-3.993,-3.9926,-3.9947,-3.9935,-3.9954,-3.9962,-3.9969,-3.9989,-4.0025,-4.0049,-4.0082,-4.0163,-4.0166,-4.02,-4.0212,-4.0222,-4.023,-4.0274,-4.0289,-4.0124,-4.0124,-4.0124,0,0,-3.9853,-3.9864,-3.9889,-3.9931,-3.9944,-3.9986,-3.9933,-3.9978,-4.0009,-3.9969,-4.0028,-4.0035,-4.0056,-4.0128,-4.016,-4.0136,-4.0277,-4.0231,-4.0239,-4.0241,-4.0283,-4.0298,-4.0312,-4.0129,-4.0128,-4.0127,0,0,-3.9954,-3.9966,-4.0021,-4.0036,-4.0057,-4.0055,-4.0068,-4.0083,-4.0086,-4.0146,-4.0117,-4.0154,-4.0216,-4.0232,-4.0249,-4.0359,-4.0335,-4.0371,-4.0432,-4.0475,-4.0488,-4.0499,-4.0538,-4.0552,-4.0379,-4.0379,-4.038,0,-4.0005,-4.0066,-4.0051,-4.0099,-4.0119,-4.0086,-4.0142,-4.0157,-4.0189,-4.0203,-4.0176,-4.0255,-4.0267,-4.0342,-4.037,-4.0384,-4.0399,-4.0368,-4.0487,-4.0498,-4.0509,-4.0546,-4.0561,-4.0384,-4.0383,-4.0383,-4.0382,0,-4.0128,-4.0171,-4.0213,-4.0244,-4.0269,-4.0321,-4.0315,-4.0342,-4.0329,-4.033,-4.0392,-4.0405,-4.0441,-4.0459,-4.0446,-4.0534,-4.0518,-4.049,-4.044,-4.0529,-4.0563,-4.0577,-4.039,-4.0388,-4.0387,-4.0386,0,0,-4.0263,-4.0289,-4.0304,-4.0319,-4.0341,-4.0374,-4.0425,-4.0461,-4.0484,-4.0508,-4.055,-4.0605,-4.0579,-4.0598,-4.0588,-4.0626,-4.0712,-4.0592,-4.0592,-4.0614,-4.0809,-4.083,-4.0846,-4.0697,-4.07,-4.0702,-4.0807,0,-4.0364,-4.0452,-4.0442,-4.0526,-4.0565,-4.0536,-4.0581,-4.06,-4.0603,-4.0637,-4.064,-4.0679,-4.0642,-4.0653,-4.069,-4.0694,-4.0751,-4.0686,-4.0736,-4.0738,-4.073,-4.0864,-4.0886,-4.0984,-4.0821,-4.0823,-4.0825,0,-4.0492,-4.0521,-4.0609,-4.0627,-4.0643,-4.0683,-4.0716,-4.0749,-4.0771,-4.0771,-4.0793,-4.0777,-4.0829,-4.078,-4.0852,-4.0808,-4.0828,-4.0834,-4.0838,-4.084,-4.0786,-4.087,-4.1016,-4.103,-4.0846,-4.0844,-4.0843,0,-4.0581,-4.0643,-4.0703,-4.0717,-4.0739,-4.0768,-4.0779,-4.0798,-4.0821,-4.085,-4.0864,-4.0899,-4.0918,-4.0946,-4.094,-4.0905,-4.1013,-4.0964,-4.1014,-4.1014,-4.1036,-4.1035,-4.1186,-4.1052,-4.1052,-4.1051,-4.1051,0,-4.0694,-4.0749,-4.0744,-4.0781,-4.0842,-4.0831,-4.0892,-4.0899,-4.0917,-4.0956,-4.0933,-4.097,-4.096,-4.0997,-4.0993,-4.1053,-4.1062,-4.1063,-4.1061,-4.1064,-4.1064,-4.1076,-4.1068,-4.1055,-4.1054,-4.1054,-4.1053,0,-4.0802,-4.0801,-4.0866,-4.0883,-4.0888,-4.0933,-4.0947,-4.0983,-4.0985,-4.1034,-4.1045,-4.1048,-4.1091,-4.1088,-4.1135,-4.1133,-4.1207,-4.1197,-4.1199,-4.1197,-4.1247,-4.1242,-4.141,-4.1431,-4.1284,-4.1286,-4.1287,0,-4.0873,-4.0915,-4.0937,-4.0961,-4.0974,-4.1014,-4.1037,-4.1029,-4.1055,-4.1084,-4.1116,-4.1157,-4.1188,-4.1257,-4.1264,-4.1301,-4.1291,-4.1348,-4.1297,-4.1299,-4.1291,-4.1288,-4.1293,-4.1357,-4.1359,-4.136,-4.1362,0,-4.0999,-4.0997,-4.1032,-4.1067,-4.1096,-4.1123,-4.1148,-4.1169,-4.1164,-4.1194,-4.1237,-4.1262,-4.1311,-4.1352,-4.1388,-4.1399,-4.138,-4.1378,-4.1392,-4.1394,-4.1394,-4.1394,-4.1226,-4.1374,-4.1372,-4.1372,-4.1371,-4.137,-4.109,-4.1126,-4.1148,-4.1188,-4.1206,-4.123,-4.1265,-4.1272,-4.1308,-4.1347,-4.1341,-4.139,-4.1412,-4.1458,-4.1474,-4.1512,-4.1491,-4.1511,-4.1516,-4.152,-4.1526,-4.1389,-4.1518,-4.1518,-4.1518,-4.1517,-4.1517,0,-4.1214,-4.1227,-4.1264,-4.13,-4.1332,-4.1312,-4.134,-4.1367,-4.141,-4.1433,-4.1466,-4.1516,-4.1556,-4.1567,-4.1606,-4.1634,-4.1627,-4.1645,-4.1642,-4.1645,-4.1542,-4.1526,-4.165,-4.165,-4.165,-4.165,-4.165,-4.165,-4.1282,-4.1342,-4.1343,-4.1413,-4.1426,-4.1473,-4.1491,-4.1513,-4.1532,-4.1589,-4.1622,-4.163,-4.1648,-4.1688,-4.1725,-4.1727,-4.1742,-4.1763,-4.1762,-4.1665,-4.1652,-4.1639,-4.1624,-4.1767,-4.1767,-4.1861,-4.1862,-4.1863]},{"header":{"parameterUnit":"m.s-1","parameterCategory":1,"la1":30.2991,"la2":30.254,"lo1":-89.0895,"lo2":-89.0444,"dy":0.0017,"dx":0.0017,"nx":28,"ny":28,"refTime":"2025-12-22T09:00:00:Z","depth":0,"parameterNumber":3,"parameterNumberName":"V-component_of_WINDS"},"data":[0,0,0,0,0,0,0,0,0,0,0,0,0,0,0,0,0,0,0,0,0,0,0,0,0,0,0,0,0,0,0,0,0,0,0,0,0,0,0,0,0,0,0,0,0,0,0,0,0,0,0,0,0,0,0,0,0,0,0.8188,0.8188,0,0.8207,0.8208,0.8208,0.8232,0.8233,0.8233,0.8233,0.8251,0.8251,0.8251,0,0,0,0,0,0,0,0,0,0,0,0,0,0.8171,0.8171,0.8188,0.8188,0.8188,0.8207,0.8208,0.8208,0.8232,0.8233,0.8233,0.8234,0.8251,0.8251,0.8251,0,0,0,0,0,0,0,0,0,0,0,0,0,0.8183,0.8171,0.8188,0.8203,0.8204,0.8207,0.8208,0.8208,0.8232,0.8233,0.8233,0.8234,0.8251,0.8251,0.8251,0.824,0,0,0.8251,0.8252,0,0,0,0,0,0,0,0,0.8183,0.8184,0.82,0.8202,0.8203,0.8218,0.8208,0.8219,0.8232,0.8221,0.8233,0.8234,0.8239,0.824,0.8243,0.8241,0.8242,0.8251,0.8252,0.8252,0.8252,0,0,0,0,0,0,0,0.8182,0.8183,0.8195,0.8201,0.8202,0.8208,0.8211,0.821,0.8227,0.8222,0.8224,0.8226,0.824,0.8242,0.8243,0.8242,0.8251,0.8252,0.8252,0.8252,0.8235,0.8234,0,0,0,0,0,0,0.8179,0.8182,0.8195,0.8196,0.8194,0.8208,0.8211,0.8213,0.8227,0.823,0.8226,0.8227,0.8242,0.8243,0.8244,0.8234,0.8252,0.8252,0.8252,0.8235,0.8235,0.8234,0,0,0,0,0,0,0.8178,0.818,0.8194,0.819,0.8192,0.8208,0.821,0.8213,0.8215,0.8229,0.8232,0.8225,0.8242,0.8244,0.8242,0.8235,0.8252,0.8252,0.8236,0.8235,0.8234,0.8212,0,0,0,0,0,0,0.8178,0.8179,0.8175,0.8189,0.8192,0.8191,0.8209,0.8213,0.8216,0.8218,0.823,0.8232,0.8243,0.8241,0.8242,0.8235,0.8252,0.8237,0.8236,0.8235,0.8214,0.8211,0.8208,0,0,0,0,0,0.8177,0.8167,0.8175,0.8176,0.8187,0.8191,0.8192,0.8206,0.8215,0.8211,0.8221,0.8232,0.8235,0.8241,0.8242,0.8235,0.8237,0.8236,0.8235,0.8215,0.8211,0.8208,0,0,0,0,0,0,0.815,0.8169,0.8178,0.8172,0.818,0.8195,0.819,0.8201,0.8206,0.8208,0.8224,0.8226,0.8223,0.8229,0.8234,0.8227,0.8238,0.8237,0.8223,0.8219,0.8217,0.8216,0.8252,0,0,0,0,0,0.8143,0.8145,0.8161,0.8155,0.8158,0.8174,0.8176,0.8186,0.8194,0.8197,0.8207,0.8214,0.8217,0.8219,0.8222,0.8215,0.8219,0.8211,0.8208,0.8206,0.8205,0.8204,0.8201,0.823,0.823,0.823,0,0,0.8129,0.814,0.814,0.815,0.8157,0.8159,0.8176,0.8176,0.8178,0.8197,0.8196,0.8204,0.8213,0.8209,0.8208,0.8214,0.8198,0.8204,0.8203,0.8203,0.8202,0.8199,0.8197,0.8229,0.823,0.823,0,0,0.8105,0.8113,0.8109,0.8117,0.8129,0.8139,0.8139,0.8153,0.8159,0.8159,0.8174,0.8176,0.818,0.8187,0.8191,0.8173,0.8184,0.8174,0.816,0.8158,0.8156,0.8154,0.8149,0.8147,0.8172,0.8172,0.8172,0,0.8086,0.8089,0.8106,0.8106,0.8111,0.813,0.8127,0.8134,0.8145,0.8148,0.8155,0.8163,0.817,0.8169,0.8165,0.8167,0.8168,0.8172,0.8155,0.8153,0.8152,0.8147,0.8145,0.8171,0.8171,0.8171,0.8172,0,0.8066,0.8069,0.8065,0.8077,0.8082,0.808,0.8097,0.8099,0.811,0.812,0.8121,0.8131,0.8138,0.8138,0.8147,0.8139,0.8143,0.8152,0.8164,0.8148,0.8144,0.8142,0.8169,0.817,0.817,0.8171,0,0,0.8023,0.8048,0.8046,0.8053,0.8069,0.8071,0.8071,0.808,0.8082,0.809,0.8091,0.8096,0.8106,0.811,0.8121,0.812,0.8107,0.813,0.813,0.8126,0.8101,0.8094,0.8092,0.8115,0.8114,0.8114,0.8101,0,0.8003,0.8005,0.8021,0.8019,0.8023,0.8043,0.8043,0.8053,0.8063,0.8068,0.8079,0.8083,0.8094,0.8098,0.8097,0.8109,0.8102,0.811,0.8116,0.8116,0.8114,0.8089,0.8082,0.8068,0.8099,0.8099,0.8098,0,0.7978,0.7987,0.7986,0.8004,0.8006,0.8006,0.8017,0.8021,0.8033,0.8041,0.8047,0.806,0.8062,0.8074,0.8078,0.8083,0.8087,0.8093,0.8093,0.8094,0.8106,0.8091,0.8064,0.8062,0.8096,0.8096,0.8096,0,0.7949,0.796,0.7962,0.7967,0.7988,0.7988,0.7997,0.801,0.8015,0.8024,0.8027,0.8036,0.804,0.8047,0.8062,0.8069,0.8065,0.8077,0.8072,0.8072,0.807,0.807,0.8044,0.8071,0.8071,0.8071,0.8072,0,0.7924,0.7923,0.7949,0.795,0.795,0.7969,0.7968,0.7979,0.7991,0.7994,0.8011,0.8014,0.8034,0.8039,0.8051,0.8054,0.8055,0.8062,0.8065,0.8061,0.806,0.8064,0.8065,0.8071,0.8071,0.8071,0.8071,0,0.7891,0.7908,0.7912,0.7932,0.7938,0.7937,0.7954,0.7956,0.7969,0.7973,0.7975,0.7994,0.8002,0.8018,0.8029,0.8038,0.8038,0.8043,0.8034,0.8036,0.803,0.8031,0.8006,0.8004,0.8032,0.8031,0.8031,0,0.7874,0.7874,0.7896,0.79,0.7909,0.7915,0.7921,0.7941,0.7946,0.7962,0.7962,0.7971,0.798,0.7991,0.8006,0.8015,0.8022,0.8012,0.8023,0.8019,0.8023,0.8023,0.8024,0.801,0.8009,0.8009,0.8009,0,0.7843,0.7853,0.7861,0.7874,0.7881,0.7891,0.7902,0.7904,0.7926,0.7932,0.7941,0.7947,0.7961,0.797,0.7982,0.7991,0.8004,0.8006,0.8005,0.8001,0.7996,0.8,0.8028,0.8006,0.8006,0.8006,0.8007,0.8007,0.7819,0.7821,0.7837,0.7846,0.7857,0.7868,0.7872,0.7886,0.7894,0.7907,0.7918,0.7926,0.7941,0.7959,0.7967,0.7974,0.798,0.7979,0.7979,0.7978,0.7977,0.7995,0.7976,0.7976,0.7977,0.7977,0.7977,0,0.779,0.7802,0.7811,0.7827,0.7835,0.7848,0.7862,0.7867,0.7875,0.7888,0.7897,0.7908,0.7918,0.7935,0.7946,0.7949,0.7955,0.7951,0.7951,0.7953,0.797,0.797,0.7946,0.7946,0.7946,0.7946,0.7946,0.7946,0.7776,0.7781,0.7792,0.7803,0.7815,0.7825,0.7832,0.7842,0.7853,0.7865,0.7874,0.7886,0.7901,0.7914,0.7924,0.7929,0.7932,0.7927,0.7933,0.7949,0.7952,0.7955,0.7955,0.7927,0.7927,0.7916,0.7916,0.7916]}]]